Date String (YYYY-MM-DD hh:mm:ss) UTC,Instrument flags,Ambient pressure (hPa),Sample flow (lpm),Bypass flow (lpm),Sample temperature (°C),Ambient temperature (°C),ASC tube jacket temperature (°C),LED temperature (°C),Box temperature (°C),Sample RH (%),Span deviation,Mass concentration (μg/m³),Mass concentration (μg/m³),Mass concentration (μg/m³)
DateTimeUTC,F1_M11,P_M11,Q1_M11,Q2_M11,T1_M11,T2_M11,T3_M11,T4_M11,T5_M11,U1_M11,ZSPAN_M11,X2_M11,X0_M11,X1_M11
2021-12-03 00:00:00,,0825.5,5.00,0.00,29.9,26.2,00.0,38.9,31.2,08.3,0000.0,0003.22,0016.26,0001.46
2021-12-03 00:01:00,,0825.5,4.99,0.00,29.8,26.4,00.0,38.8,31.1,08.4,0000.0,0003.17,0016.90,0001.47
2021-12-03 00:02:00,,0825.5,5.00,0.00,29.7,26.8,00.0,38.8,31.2,08.5,0000.0,0003.19,0016.11,0001.50
2021-12-03 00:03:00,,0825.5,4.99,0.00,29.7,27.2,00.0,38.8,31.3,08.5,0000.0,0003.19,0015.01,0001.51
2021-12-03 00:04:00,,0825.5,5.01,0.00,29.7,27.6,00.0,38.7,31.4,08.5,0000.0,0003.17,0015.93,0001.52
2021-12-03 00:05:00,,0825.5,5.00,0.00,29.7,27.8,00.0,38.7,31.4,08.5,0000.0,0003.15,0016.71,0001.49
2021-12-03 00:06:00,,0825.6,4.98,0.00,29.7,28.1,00.0,38.7,31.5,08.5,0000.0,0003.14,0016.04,0001.48
2021-12-03 00:07:00,,0825.6,5.00,0.00,29.8,28.3,00.0,38.7,31.5,08.5,0000.0,0003.17,0015.96,0001.47
2021-12-03 00:08:00,,0825.6,5.00,0.00,29.8,28.4,00.0,38.7,31.6,08.5,0000.0,0003.12,0016.24,0001.46
2021-12-03 00:09:00,,0825.6,5.00,0.00,29.8,28.5,00.0,38.7,31.6,08.5,0000.0,0003.07,0015.91,0001.46
2021-12-03 00:10:00,,0825.6,4.99,0.00,29.8,28.7,00.0,38.8,31.6,08.5,0000.0,0003.02,0015.68,0001.46
2021-12-03 00:11:00,,0825.6,5.00,0.00,29.9,28.8,00.0,38.8,31.7,08.5,0000.0,0003.05,0015.03,0001.47
2021-12-03 00:12:00,,0825.6,5.00,0.00,29.9,28.9,00.0,38.8,31.7,08.5,0000.0,0003.10,0014.24,0001.48
2021-12-03 00:13:00,,0825.6,5.00,0.00,29.9,29.0,00.0,38.8,31.7,08.5,0000.0,0003.07,0014.15,0001.46
2021-12-03 00:14:00,,0825.6,5.00,0.00,29.9,29.0,00.0,38.8,31.7,08.5,0000.0,0002.98,0014.31,0001.43
2021-12-03 00:15:00,,0825.6,5.00,0.00,30.0,29.1,00.0,38.8,31.8,08.4,0000.0,0002.94,0013.40,0001.41
2021-12-03 00:16:00,,0825.6,5.00,0.00,30.0,29.2,00.0,38.9,31.9,08.4,0000.0,0002.98,0012.32,0001.41
2021-12-03 00:17:00,,0825.6,5.00,0.00,30.0,29.2,00.0,38.9,31.9,08.4,0000.0,0003.00,0012.23,0001.40
2021-12-03 00:18:00,,0825.6,5.01,0.00,30.1,29.3,00.0,38.9,31.9,08.4,0000.0,0002.93,0012.69,0001.39
2021-12-03 00:19:00,,0825.6,5.01,0.00,30.1,29.3,00.0,38.9,31.9,08.4,0000.0,0002.89,0012.43,0001.38
2021-12-03 00:20:00,,0825.6,4.98,0.00,30.1,29.4,00.0,39.0,31.9,08.3,0000.0,0002.85,0011.80,0001.38
2021-12-03 00:21:00,,0825.6,5.01,0.00,30.2,29.4,00.0,39.0,32.0,08.3,0000.0,0002.84,0012.59,0001.38
2021-12-03 00:22:00,,0825.6,5.00,0.00,30.2,29.3,00.0,39.0,32.0,08.3,0000.0,0002.83,0012.90,0001.38
2021-12-03 00:23:00,,0825.6,5.01,0.00,30.1,27.4,00.0,39.0,31.5,08.3,0000.0,0002.74,0012.77,0001.37
2021-12-03 00:24:00,,0825.6,4.99,0.00,30.0,26.4,00.0,39.0,31.2,08.3,0000.0,0002.69,0012.77,0001.36
2021-12-03 00:25:00,,0825.6,4.99,0.00,29.9,26.5,00.0,39.0,31.3,08.3,0000.0,0002.66,0012.25,0001.37
2021-12-03 00:26:00,,0825.6,5.01,0.00,29.8,26.9,00.0,38.9,31.3,08.4,0000.0,0002.69,0012.98,0001.38
2021-12-03 00:27:00,,0825.6,5.01,0.00,29.8,27.3,00.0,38.9,31.4,08.4,0000.0,0002.71,0013.20,0001.40
2021-12-03 00:28:00,,0825.6,4.98,0.00,29.8,27.7,00.0,38.8,31.5,08.4,0000.0,0002.67,0013.52,0001.41
2021-12-03 00:29:00,,0825.6,5.00,0.00,29.8,27.9,00.0,38.8,31.5,08.4,0000.0,0002.66,0013.11,0001.43
2021-12-03 00:30:00,,0825.6,5.01,0.00,29.8,28.1,00.0,38.8,31.5,08.4,0000.0,0002.65,0012.57,0001.43
2021-12-03 00:31:00,,0825.6,5.00,0.00,29.8,28.4,00.0,38.8,31.5,08.4,0000.0,0002.64,0013.17,0001.42
2021-12-03 00:32:00,,0825.6,4.99,0.00,29.8,28.5,00.0,38.8,31.6,08.4,0000.0,0002.62,0012.46,0001.42
2021-12-03 00:33:00,,0825.6,5.00,0.00,29.9,28.7,00.0,38.8,31.6,08.3,0000.0,0002.68,0011.74,0001.42
2021-12-03 00:34:00,,0825.6,5.01,0.00,29.9,28.8,00.0,38.8,31.6,08.3,0000.0,0002.80,0012.56,0001.41
2021-12-03 00:35:00,,0825.6,4.99,0.00,29.9,28.8,00.0,38.8,31.7,08.3,0000.0,0002.88,0012.34,0001.41
2021-12-03 00:36:00,,0825.6,5.01,0.00,30.0,28.9,00.0,38.9,31.7,08.3,0000.0,0002.93,0012.79,0001.42
2021-12-03 00:37:00,,0825.6,5.00,0.00,30.0,29.0,00.0,38.9,31.7,08.3,0000.0,0002.96,0012.90,0001.43
2021-12-03 00:38:00,,0825.6,5.01,0.00,30.0,29.0,00.0,38.9,31.8,08.3,0000.0,0002.91,0012.72,0001.42
2021-12-03 00:39:00,,0825.6,4.99,0.00,30.0,29.1,00.0,38.9,31.8,08.3,0000.0,0002.94,0013.31,0001.41
2021-12-03 00:40:00,,0825.6,4.99,0.00,30.1,29.2,00.0,38.9,31.9,08.3,0000.0,0002.99,0013.72,0001.41
2021-12-03 00:41:00,,0825.6,5.00,0.00,30.1,29.2,00.0,38.9,31.9,08.3,0000.0,0003.02,0013.88,0001.41
2021-12-03 00:42:00,,0825.7,5.00,0.00,30.1,29.2,00.0,39.0,31.9,08.2,0000.0,0003.03,0013.39,0001.41
2021-12-03 00:43:00,,0825.7,5.00,0.00,30.1,29.2,00.0,39.0,31.9,08.2,0000.0,0003.02,0013.55,0001.41
2021-12-03 00:44:00,,0825.7,5.01,0.00,30.2,29.3,00.0,39.0,31.9,08.2,0000.0,0002.91,0013.58,0001.40
2021-12-03 00:45:00,,0825.7,5.01,0.00,30.2,29.3,00.0,39.0,31.9,08.2,0000.0,0002.79,0012.20,0001.40
2021-12-03 00:46:00,,0825.6,4.99,0.00,30.2,29.3,00.0,39.1,32.0,08.2,0000.0,0002.72,0013.50,0001.42
2021-12-03 00:47:00,,0825.6,5.00,0.00,30.2,29.4,00.0,39.1,32.0,08.2,0000.0,0002.71,0013.88,0001.40
2021-12-03 00:48:00,,0825.7,4.99,0.00,30.3,29.4,00.0,39.1,32.0,08.1,0000.0,0002.69,0012.92,0001.40
2021-12-03 00:49:00,,0825.7,4.99,0.00,30.3,29.4,00.0,39.1,32.0,08.1,0000.0,0002.72,0012.99,0001.40
2021-12-03 00:50:00,,0825.6,5.01,0.00,30.2,27.7,00.0,39.1,31.7,08.1,0000.0,0002.69,0012.26,0001.42
2021-12-03 00:51:00,,0825.6,4.99,0.00,30.1,26.2,00.0,39.1,31.3,08.2,0000.0,0002.63,0011.51,0001.42
2021-12-03 00:52:00,,0825.9,5.02,0.00,30.0,26.3,00.0,39.1,31.3,08.3,0000.0,0002.71,0012.30,0001.44
2021-12-03 00:53:00,,0825.7,5.00,0.00,29.9,26.7,00.0,39.0,31.3,08.3,0000.0,0002.83,0013.10,0001.47
2021-12-03 00:54:00,,0825.6,4.99,0.00,29.8,27.2,00.0,39.0,31.4,08.3,0000.0,0002.83,0012.79,0001.44
2021-12-03 00:55:00,,0825.6,5.01,0.00,29.8,27.5,00.0,38.9,31.4,08.2,0000.0,0002.79,0012.44,0001.41
2021-12-03 00:56:00,,0825.6,5.00,0.00,29.8,27.9,00.0,38.9,31.5,08.2,0000.0,0002.76,0013.09,0001.38
2021-12-03 00:57:00,,0825.6,4.99,0.00,29.8,28.1,00.0,38.9,31.5,08.2,0000.0,0002.73,0012.52,0001.34
2021-12-03 00:58:00,,0825.6,5.00,0.00,29.8,28.3,00.0,38.9,31.6,08.1,0000.0,0002.64,0010.75,0001.30
2021-12-03 00:59:00,,0825.7,5.01,0.00,29.9,28.5,00.0,38.9,31.6,08.1,0000.0,0002.56,0010.96,0001.25
